Location: Newark
(48.8481°N, 20.9372°E)
Time: 08:56:21
(UTC+00:00)

AIST 2D - Visible Passes

Search period start: 06 June 2020 00:00
Search period end: 16 June 2020 00:00
Orbit: 455 x 468 km, 97.2° (Epoch: 05 June)

Date Brightness Start Highest point End Pass type
(mag) Time Alt. Az. Time Alt. Az. Time Alt. Az.
06 Jun ? 21:01:26 10° NNE 21:04:55 53° E 21:06:05 35° SSE visible
06 Jun ? 22:35:43 10° NNW 22:37:30 14° WNW 22:39:18 10° W visible
07 Jun ? 20:30:34 10° NE 20:33:26 23° E 20:34:29 20° ESE visible
07 Jun ? 22:03:25 10° N 22:06:27 27° WNW 22:08:23 17° WSW visible
08 Jun ? 20:01:02 10° ENE 20:01:49 11° E 20:02:35 10° E visible
08 Jun ? 21:31:45 10° N 21:35:14 63° WNW 21:36:46 30° SW visible
09 Jun ? 21:00:27 10° NNE 21:03:54 52° E 21:05:09 33° SSE visible
09 Jun ? 22:34:40 10° NNW 22:36:31 14° WNW 22:38:21 10° W visible
10 Jun ? 20:29:34 10° NE 20:32:24 22° E 20:33:32 19° ESE visible
10 Jun ? 22:02:23 10° N 22:05:26 28° WNW 22:07:26 16° WSW visible
11 Jun ? 20:00:13 10° ENE 20:00:47 10° E 20:01:20 10° E visible
11 Jun ? 21:30:43 10° N 21:34:13 64° WNW 21:35:48 29° SSW visible
12 Jun ? 20:59:25 10° NNE 21:02:51 51° E 21:04:10 31° SSE visible
12 Jun ? 22:33:35 10° NNW 22:35:29 14° WNW 22:37:21 10° W visible
13 Jun ? 20:28:34 10° NE 20:31:22 22° E 20:32:33 19° ESE visible
13 Jun ? 22:01:20 10° N 22:04:24 28° WNW 22:06:26 16° WSW visible
14 Jun ? 19:59:37 10° E 19:59:43 10° E 19:59:50 10° E visible
14 Jun ? 21:29:40 10° N 21:33:10 66° WNW 21:34:48 29° SSW visible
15 Jun ? 20:58:22 10° NNE 21:01:48 49° E 21:03:09 30° SSE visible
15 Jun ? 22:32:29 10° NNW 22:34:26 14° WNW 22:36:21 10° W visible
